Location: *
(33.9753°N, 117.7231°W)
Time: 09:07:30
(UTC+00:00)

Daily predictions for brighter satellites

Satellite Brightness Start Highest point End
(mag) Time Altitude Azimuth Time Altitude Azimuth Time Altitude Azimuth
PAYLOAD A 4.1 12:04:15 10° NNE 12:09:32 81° ESE 12:14:35 10° S
Skynet4D Del rocket 4.3 12:06:47 20° WSW 12:09:43 34° S 12:14:31 10° SE
NOSS 3-4 (A) 4.1 12:08:26 10° NW 12:15:29 52° WSW 12:23:04 10° S
NOSS 3-4 (C) 4.1 12:08:32 10° NW 12:15:35 52° WSW 12:23:11 10° S
Cosmos 1842 Rocket 3.5 12:12:07 10° S 12:16:33 81° W 12:20:59 10° N
Cosmos 2237 Rocket 4.0 12:14:48 10° WNW 12:15:59 12° W 12:15:59 12° W
Cosmos 304 Rocket 4.2 12:12:35 10° S 12:17:18 63° ESE 12:22:05 10° NNE
SEDSat Delta rocket 4.2 12:14:16 13° W 12:20:09 53° SSW 12:26:22 10° ESE
SL-8 R/B 4.1 12:18:11 13° SW 12:22:28 60° SE 12:27:14 10° ENE
COSMOS 2441 4.3 12:18:57 10° N 12:23:42 67° WNW 12:28:27 10° SSW
SL-16 R/B 2.8 12:18:40 10° NW 12:23:43 34° WSW 12:28:46 10° SSW
Meteor PRIRODA 4.4 12:21:07 10° NNE 12:24:39 52° E 12:28:11 10° S
CZ-2C R/B 2.2 12:21:05 10° NNE 12:25:41 89° W 12:30:16 10° SSW
Meteor 2-10 Rocket 3.7 12:20:29 10° S 12:25:52 89° W 12:31:31 10° N
Cosmos 1455 2.7 12:22:53 10° SSW 12:26:19 38° W 12:29:50 10° N
IDEFIX/ARIANE 42P 3.3 12:23:34 10° N 12:28:15 35° WNW 12:32:56 10° SW
Cosmos 2221 2.5 12:28:44 10° S 12:33:05 78° W 12:37:29 10° N
Cosmos 1500 Rocket 3.7 12:30:05 10° N 12:34:24 76° E 12:38:42 10° S
CZ-4B R/B 2.9 12:30:51 10° N 12:34:46 65° WNW 12:38:53 10° SSW
MSX 4.2 12:33:40 10° N 12:39:10 47° WNW 12:44:39 10° SW
CZ-4B R/B 4.0 12:35:50 10° N 12:40:04 61° WNW 12:44:06 10° SSW
RESURS DK-1 4.3 12:36:49 10° N 12:40:37 35° ENE 12:44:24 10° SE
Helios 1A Rocket 3.4 12:40:56 10° NNE 12:44:56 63° ESE 12:48:54 10° S
CZ-3 R/B 3.3 12:27:40 10° WSW 12:48:05 44° S 12:54:06 10° ESE
Meteor 2-3 Rocket 3.9 12:43:01 10° N 12:48:38 79° E 12:54:11 10° S
